This is the latest recevied weather packets stored in our database for station/object W3BRL. If no packets are shown the sender has not sent any weather packets the latest 10 day(s).
| Time | Temp. | Humidity | Pressure | Rain* | Wind** | Luminosity | Snow |
|---|---|---|---|---|---|---|---|
| 1777466880 | 12.78° C | 98% | 1008.1 hPa | 0 mm | - | 9 W/m² | - |
| 1777466578 | 12.78° C | 98% | 1007.8 hPa | 0 mm | - | 12 W/m² | - |
| 1777466273 | 12.78° C | 98% | 1008.2 hPa | 0 mm | - | 15 W/m² | - |
| 1777465970 | 12.78° C | 98% | 1008.2 hPa | 0 mm | - | 25 W/m² | - |
| 1777465666 | 12.78° C | 98% | 1008.1 hPa | 0 mm | - | 40 W/m² | - |
| 1777465362 | 12.78° C | 98% | 1007.9 hPa | 0 mm | - | 43 W/m² | - |
| 1777465061 | 12.78° C | 98% | 1007.8 hPa | 0 mm | - | 46 W/m² | - |
| 1777464756 | 12.78° C | 98% | 1008.2 hPa | 0 mm | - | 50 W/m² | - |
| 1777464453 | 12.78° C | 98% | 1008.1 hPa | 0 mm | - | 53 W/m² | - |
| 1777464149 | 12.78° C | 98% | 1008.1 hPa | 0 mm | - | 48 W/m² | - |
| 1777463848 | 12.78° C | 98% | 1008.3 hPa | 0 mm | - | 37 W/m² | - |
| 1777463544 | 12.78° C | 98% | 1008.5 hPa | 0 mm | - | 31 W/m² | - |
| 1777463239 | 12.78° C | 98% | 1008.7 hPa | 0 mm | - | 28 W/m² | - |
| 1777462936 | 12.78° C | 98% | 1008.7 hPa | 0 mm | - | 28 W/m² | - |
| 1777462632 | 12.78° C | 98% | 1008.8 hPa | 0 mm | - | 28 W/m² | - |
| 1777462327 | 12.78° C | 98% | 1008.7 hPa | 0 mm | - | 22 W/m² | - |
| 1777462023 | 12.78° C | 97% | 1008.8 hPa | 0 mm | - | 19 W/m² | - |
| 1777461720 | 12.78° C | 97% | 1008.9 hPa | 0 mm | - | 19 W/m² | - |
| 1777461415 | 12.78° C | 97% | 1008.9 hPa | 0 mm | - | 18 W/m² | - |
| 1777461112 | 12.78° C | 97% | 1008.9 hPa | 0 mm | - | 19 W/m² | - |
| 1777460807 | 12.78° C | 97% | 1008.8 hPa | 0 mm | - | 18 W/m² | - |
| 1777460503 | 12.78° C | 97% | 1008.9 hPa | 0 mm | - | 17 W/m² | - |
| 1777460199 | 12.78° C | 97% | 1008.8 hPa | 0 mm | - | 14 W/m² | - |
| 1777459897 | 12.78° C | 97% | 1008.8 hPa | 0 mm | - | 11 W/m² | - |
| 1777459593 | 12.78° C | 97% | 1008.8 hPa | 0 mm | - | 8 W/m² | - |
* Rain latest hour (hover to see other rain measurements)
** Current wind speed in m/s (hover to see current wind gust speed)